Change the Weather History Date:

Monday, May 5, 2014

  Actual Average Record
Temperature  
Mean Temperature 80 °F -  
Max Temperature 98 °F 75 °F 98 °F (2014)
Min Temperature 63 °F 50 °F 37 °F (2013)
Cooling Degree Days 15    
Growing Degree Days 30 (Base 50)    
Moisture  
Dew Point 27 °F    
Average Humidity 16    
Maximum Humidity 42    
Minimum Humidity 7    
Precipitation  
Precipitation 0.00 in - - ()
Sea Level Pressure  
Sea Level Pressure 29.63 in    
Wind  
Wind Speed 14 mph (West)    
Max Wind Speed 21 mph    
Max Gust Speed 31 mph    
Visibility 10 miles    
Events      
Averages and records for this station are not official NWS values.
T = Trace of Precipitation, MM = Missing Value Source: NWS Daily Summary

Daily Weather History Graph

Daily Weather History Graph

Search for Another Location

Airport or City:

Trip Planner

Search our weather history database for the weather conditions in past years. The results will help you decide how hot, cold, wet, or windy it might be!

Date:

Astronomy

May. 05, 2014 Rise Set
Actual Time 6:41 AM CDT 8:30 PM CDT
Civil Twilight 6:13 AM CDT 8:58 PM CDT
Nautical Twilight 5:40 AM CDT 9:32 PM CDT
Astronomical Twilight 5:04 AM CDT 10:08 PM CDT
Moon 12:02 PM CDT (5/5) 1:15 AM CDT (5/5)
Length of Visible Light 14h 44m
Length of Day
13h 48m
Waxing Crescent, 37% of the Moon is Illuminated
May 5
Waxing Crescent
May 6
First Quarter
May 14
Full
May 21
Last Quarter
May 28
New

Hourly Weather History & Observations

Time (CDT) Temp. Dew Point Humidity Pressure Visibility Wind Dir Wind Speed Gust Speed Precip Events Conditions
12:53 AM 77.0 °F 18.0 °F 11% 29.64 in 10.0 mi South 20.7 mph 28.8 mph N/A   Clear
1:53 AM 73.9 °F 19.0 °F 13% 29.63 in 10.0 mi South 20.7 mph 31.1 mph N/A   Clear
2:53 AM 71.1 °F 19.9 °F 14% 29.62 in 10.0 mi South 19.6 mph - N/A   Clear
3:53 AM 69.1 °F 19.0 °F 15% 29.62 in 10.0 mi South 18.4 mph 27.6 mph N/A   Clear
4:53 AM 68.0 °F 18.0 °F 15% 29.63 in 10.0 mi SSW 19.6 mph - N/A   Clear
5:53 AM 66.9 °F 19.9 °F 17% 29.64 in 10.0 mi SSW 15.0 mph - N/A   Clear
6:53 AM 63.0 °F 21.9 °F 21% 29.66 in 10.0 mi SW 8.1 mph - N/A   Clear
7:53 AM 66.9 °F 25.0 °F 21% 29.68 in 10.0 mi SW 4.6 mph - N/A   Clear
8:53 AM 72.0 °F 27.0 °F 19% 29.69 in 10.0 mi West 9.2 mph - N/A   Clear
9:53 AM 79.0 °F 24.1 °F 13% 29.71 in 10.0 mi West 15.0 mph - N/A   Clear
10:53 AM 82.9 °F 23.0 °F 11% 29.70 in 10.0 mi WNW 10.4 mph 19.6 mph N/A   Clear
11:53 AM 87.1 °F 26.1 °F 11% 29.70 in 10.0 mi NW 10.4 mph - N/A   Clear
12:53 PM 87.8 °F 37.4 °F 17% 29.78 in 10.0 mi WNW 12.7 mph - N/A   Clear
1:53 PM 90.0 °F 39.0 °F 17% 29.66 in 10.0 mi NNW 6.9 mph 16.1 mph N/A   Clear
2:53 PM 93.0 °F 37.0 °F 14% 29.64 in 10.0 mi WNW 4.6 mph - N/A   Clear
3:53 PM 96.1 °F 28.0 °F 9% 29.61 in 10.0 mi West 6.9 mph - N/A   Partly Cloudy
4:53 PM 96.1 °F 21.0 °F 7% 29.58 in 10.0 mi West 5.8 mph - N/A   Partly Cloudy
5:53 PM 97.0 °F 23.0 °F 7% 29.55 in 10.0 mi NNE 4.6 mph - N/A   Scattered Clouds
6:53 PM 95.0 °F 24.1 °F 8% 29.54 in 10.0 mi ENE 5.8 mph - N/A   Scattered Clouds
7:53 PM 89.1 °F 25.0 °F 10% 29.53 in 10.0 mi East 6.9 mph - N/A   Partly Cloudy
8:53 PM 78.1 °F 30.0 °F 17% 29.55 in 10.0 mi NE 8.1 mph - N/A   Partly Cloudy
9:53 PM 79.0 °F 41.0 °F 26% 29.55 in 10.0 mi ENE 4.6 mph - N/A   Clear
10:53 PM 71.6 °F 41.0 °F 33% 29.64 in 10.0 mi NE 6.9 mph - N/A   Clear
11:53 PM 66.0 °F 42.1 °F 42% 29.56 in 10.0 mi ENE 3.5 mph - N/A   Clear